Location: Fort Wayne
(41.1310°N, 85.1290°W)
Time: 02:56:57
(UTC-04:00)

Daily predictions for brighter satellites

Satellite Brightness Start Highest point End
(mag) Time Altitude Azimuth Time Altitude Azimuth Time Altitude Azimuth
Cosmos 1726 Rocket 4.4 00:01:04 10° N 00:04:49 41° ENE 00:04:49 41° ENE
CZ-2C R/B 2.6 00:04:21 10° NNE 00:10:00 80° ESE 00:10:48 66° S
Cosmos 2058 Rocket 4.2 00:07:28 10° N 00:11:12 34° ENE 00:11:12 34° ENE
Cosmos 2228 4.1 00:08:16 10° N 00:11:37 35° NE 00:11:37 35° NE
Cosmos 2333 Rocket 2.7 00:09:10 10° NNW 00:14:42 49° ENE 00:15:41 44° E
COSMOS 2428 2.5 00:12:21 10° NNW 00:18:04 82° ENE 00:18:42 71° SE
Cosmos 1544 4.1 00:14:42 10° N 00:17:23 45° NNW 00:17:23 45° NNW
Cosmos 783 Rocket 4.3 00:20:47 80° ESE 00:20:52 80° ESE 00:26:11 10° NNE
ALOS 2 4.2 00:21:15 25° ENE 00:21:15 25° ENE 00:24:39 10° NNE
Cosmos 1125 Rocket 3.6 00:16:13 10° NNW 00:21:24 60° WSW 00:21:41 59° WSW
Cosmos 2026 Rocket 3.8 00:15:12 10° N 00:21:24 75° E 00:22:19 63° SE
Cosmos 2279 Rocket 4.1 00:23:06 55° ESE 00:23:44 58° E 00:29:49 10° NNE
SL-16 R/B 4.5 00:20:37 10° NNE 00:23:55 15° NE 00:26:59 11° E
Cosmos 2142 Rocket 4.3 00:26:48 65° S 00:27:48 88° E 00:34:02 10° N
Cosmos 1980 4.4 00:30:18 10° NNW 00:35:42 43° ENE 00:36:33 40° E
COSMOS 2455 3.8 00:40:42 34° E 00:40:42 34° E 00:45:07 10° NE
Cosmos 1627 Rocket 4.5 00:35:41 10° NNW 00:41:49 69° W 00:42:41 61° SW
NOSS 0 Rocket 4.0 00:36:01 10° NNW 00:42:14 66° ENE 00:43:12 57° ESE
ADEOS Rocket 3.7 00:37:13 10° NNE 00:41:41 34° E 00:41:41 34° E
Terra 3.5 00:42:06 22° W 00:42:25 22° W 00:46:09 10° NW
CZ-4B R/B 4.4 00:39:06 10° NNE 00:42:59 36° ENE 00:42:59 36° ENE
Cosmos 2297 Rocket 3.1 00:45:19 36° E 00:45:19 36° E 00:49:35 10° NE
Cosmos 1606 Rocket 4.3 00:41:50 10° NNW 00:45:31 49° WNW 00:45:31 49° WNW
Cosmos 2227 Rocket 2.8 00:48:01 43° E 00:48:01 43° E 00:52:37 10° NE
Meteor 1-21 4.0 00:47:32 84° SE 00:47:38 85° E 00:53:16 10° N
Cosmos 1634 Rocket 4.5 00:47:22 43° SW 00:49:01 54° W 00:55:14 10° N
CENTAUR R/B 4.2 00:44:45 10° W 00:50:12 31° NW 00:56:21 10° NNE
ISS -0.4 00:49:02 10° NW 00:50:44 13° N 00:52:26 10° NNE
Cosmos 2237 Rocket 2.5 00:48:49 10° NNW 00:54:26 57° ENE 00:54:56 55° E
Cosmos 1428 Rocket 4.3 00:48:30 10° N 00:54:37 79° W 00:55:11 72° SSW
CZ-4C R/B 2.9 00:47:35 10° NW 00:54:54 78° WSW 00:56:32 59° S
Cosmos 773 Rocket 4.3 00:57:50 58° ENE 00:57:50 58° ENE 01:02:10 10° NNE
Meteor 1-22 Rocket 4.5 00:51:58 10° NNW 00:57:10 52° W 00:57:10 52° W
Cosmos 2082 4.4 00:59:23 40° E 00:59:23 40° E 01:03:58 10° NE
CZ-4 R/B 4.1 00:55:56 10° N 01:00:49 68° WNW 01:00:49 68° WNW
Cosmos 2266 Rocket 4.3 00:58:31 10° N 01:04:45 56° E 01:05:28 53° ESE
COBE Rocket 4.4 01:05:47 10° N 01:10:06 50° WNW 01:10:06 50° WNW
H-2A R/B 2.8 01:14:14 50° NNE 01:14:14 50° NNE 01:17:32 10° N
Cosmos 2219 4.0 01:12:35 39° W 01:13:57 46° WNW 01:19:31 10° NNE
Meteor 2-11 Rocket 4.3 01:25:25 79° SE 01:25:39 80° E 01:31:46 10° N
Mayak 0.0 01:32:54 10° N 01:36:07 39° NW 01:36:07 39° NW
Meteor 2-5 Rocket 4.3 01:38:42 47° E 01:38:43 47° E 01:44:19 10° NNE
Cosmos 1470 4.4 01:37:00 10° NNW 01:39:12 32° NNW 01:39:12 32° NNW
Cosmos 1953 3.9 01:38:27 10° NNW 01:40:46 32° NNW 01:40:46 32° NNW
Iridium 4 Rocket 4.5 01:42:37 41° W 01:42:52 41° W 01:48:23 10° NNW
Cosmos 2219 Rocket 3.7 01:43:47 10° NW 01:47:22 24° W 01:47:22 24° W
Cosmos 923 Rocket 4.1 01:54:14 74° NNW 01:54:14 74° NNW 01:59:10 10° NNE
Cosmos 1680 Rocket 3.6 01:56:42 72° NE 01:56:42 72° NE 02:01:25 10° NNE
ALOS 2 4.4 01:58:38 24° WNW 01:58:38 24° WNW 02:01:03 10° NW
Cosmos 2112 Rocket 4.1 01:58:48 67° NE 01:58:48 67° NE 02:03:25 10° NNE
Cosmos 2333 Rocket 3.8 01:54:09 10° NW 01:57:41 23° W 01:57:41 23° W
Cosmos 1238 Rocket 3.6 02:07:19 64° NNE 02:07:19 64° NNE 02:11:01 10° N
Meteor 1-16 Rocket 4.0 02:01:32 10° N 02:06:33 79° NNW 02:06:33 79° NNW
SL-16 R/B 2.1 02:03:09 10° NNW 02:08:50 89° NW 02:08:50 89° NW
Cosmos 2263 Rocket 4.0 02:13:52 18° ESE 02:14:15 18° E 02:17:59 10° ENE
Resurs 1-4 Rocket 4.4 02:18:18 10° ENE 02:20:40 13° E 02:22:05 12° ESE
NOSS 3-1 (C) 4.2 02:21:13 34° ESE 02:21:13 34° ESE 02:26:34 10° NE
COSMOS 2455 3.8 02:23:49 32° W 02:25:33 39° NW 02:31:11 10° NNE
Cosmos 1953 Rocket 4.2 02:28:30 53° NNW 02:28:30 53° NNW 02:31:54 10° N
ADEOS Rocket 4.0 02:22:57 10° N 02:27:42 30° WNW 02:28:39 28° W
ISS -0.9 02:25:51 10° NNW 02:28:12 18° NNE 02:30:33 10° ENE
Cosmos 2297 Rocket 3.4 02:27:06 28° W 02:28:27 31° WNW 02:33:29 10° N
Cosmos 2227 Rocket 3.7 02:29:49 23° W 02:31:28 27° NW 02:36:15 10° N
CZ-4B R/B 3.3 02:37:54 30° NE 02:37:54 30° NE 02:40:13 10° N
Cosmos 1758 Rocket 4.4 02:38:39 43° NW 02:38:39 43° NW 02:42:18 10° N
Cosmos 2237 Rocket 4.0 02:33:57 10° NW 02:36:45 19° W 02:36:45 19° W
USA 229 DEB 3.5 02:37:21 64° SSW 02:38:31 85° SE 02:45:27 10° NE
USA 229 3.5 02:37:28 64° SSW 02:38:37 84° SE 02:45:33 10° NE
Cosmos 1603 4.2 02:34:26 10° NNW 02:39:59 54° ENE 02:41:59 36° ESE
NOSS 3-1 (A) 4.3 02:39:49 32° ESE 02:40:08 33° ESE 02:45:34 10° NE
DELTA 2 R/B (1) 3.7 02:43:00 62° ESE 02:43:00 62° ESE 02:47:47 10° E
Cosmos 1400 Rocket 4.4 02:46:34 29° NW 02:46:34 29° NW 02:49:26 10° N
GEOS 3 Rocket 3.5 02:40:30 10° NE 02:45:52 90° ESE 02:46:13 79° SW
Cosmos 1726 3.5 02:42:51 10° N 02:45:34 36° NE 02:45:34 36° NE
SeaSat 1 4.4 02:43:36 10° ESE 02:47:36 26° NE 02:51:38 10° N
Cosmos 2227 4.0 02:47:35 72° SSE 02:48:00 77° ESE 02:53:39 10° NNE
Cosmos-2242 3.7 02:44:25 10° NNW 02:47:39 47° NW 02:47:39 47° NW
SL-08 R/B 4.3 02:43:23 10° N 02:49:31 78° W 02:50:21 66° SSW
Cosmos 972 Rocket 4.4 02:50:42 50° W 02:51:06 51° WNW 02:56:08 10° N
Cosmos 1553 Rocket 3.9 02:51:02 61° SW 02:52:00 72° W 02:58:12 10° N
USA 267 3.8 02:48:58 10° ENE 02:55:05 41° SE 02:56:01 39° SSE
PSLV R/B 4.1 02:51:54 10° N 02:55:41 50° NW 02:55:41 50° NW
Meteor 2-13 Rocket 4.4 02:50:15 10° N 02:56:20 76° E 02:57:51 52° SSE
H-2A R/B 4.1 02:55:40 10° NE 02:59:29 27° E 02:59:59 26° ESE
Landsat 5 3.8 03:09:16 56° NW 03:09:16 56° NW 03:12:38 10° NNW
AQUA 4.5 03:11:16 10° NNE 03:15:50 45° E 03:16:43 40° SE
SL-16 R/B 3.0 03:12:17 22° SE 03:16:16 57° ENE 03:22:19 10° N
Cosmos 1315 Rocket 4.3 03:17:09 27° NW 03:17:09 27° NW 03:19:52 10° NNW
Cosmos 1674 3.8 03:17:49 34° NW 03:17:49 34° NW 03:20:28 10° N
Cosmos 883 Rocket 4.3 03:22:11 51° SSW 03:23:52 84° W 03:30:02 10° N
Cosmos 1626 3.5 03:24:48 29° ESE 03:25:11 30° E 03:28:29 10° NNE
BREEZE M DEB (TANK) 4.1 03:24:48 37° S 03:27:04 45° SSE 03:31:00 10° ENE
Cosmos 2315 Rocket 3.9 03:27:48 43° S 03:29:59 82° E 03:36:14 10° N
Cosmos 1452 Rocket 3.4 03:25:01 10° NNW 03:30:19 86° ENE 03:32:10 42° SSE
Cosmos 2056 Rocket 4.3 03:27:30 10° NW 03:31:27 33° W 03:31:27 33° W
CZ-2D R/B 2.4 03:27:10 10° NNE 03:32:18 57° E 03:34:00 39° SSE
Cosmos 1340 2.6 03:30:10 10° N 03:33:47 80° NNE 03:33:47 80° NNE
Cosmos 1689 Rocket 4.3 03:35:53 21° NW 03:35:53 21° NW 03:37:10 10° NNW
Cosmos 2221 2.6 03:31:34 10° N 03:35:58 76° E 03:36:50 55° SSE
SL-08 R/B 3.5 03:35:42 38° SSE 03:37:35 77° ENE 03:42:32 10° N
Cosmos 1048 Rocket 4.2 03:39:08 44° SSE 03:40:39 65° ESE 03:45:50 10° NNE
Cosmos 1346 Rocket 4.5 03:40:50 10° NW 03:42:47 21° WNW 03:42:47 21° WNW
Geosat 4.2 03:46:04 10° NNE 03:51:04 64° ESE 03:52:51 39° S
SL-16 R/B 4.4 03:50:20 10° WNW 03:50:41 10° W 03:50:41 10° W
Cosmos 158 Rocket 4.3 03:51:38 41° WSW 03:53:12 56° WNW 03:58:31 10° N
UNK 3.6 03:52:10 46° S 03:53:29 75° WSW 03:58:10 10° NNW
Cosmos 1842 Rocket 4.4 03:49:58 10° NNW 03:53:40 33° W 03:53:40 33° W
NPP 3.7 03:48:52 10° N 03:54:12 63° WNW 03:56:00 40° SW
Cosmos 1943 3.1 03:48:33 10° NNW 03:54:12 66° WSW 03:56:50 32° S
Spot 4 Rocket 4.4 03:50:54 10° NNE 03:55:59 59° E 03:58:29 29° S
Cosmos 2263 Rocket 2.3 03:55:33 39° SW 03:57:35 63° WNW 04:03:16 10° NNE
OAO 2 Rocket 4.4 03:59:35 27° SSE 03:59:35 27° SSE 04:03:37 10° ESE
IRS-P3 4.2 03:55:04 10° N 04:00:19 61° WNW 04:02:14 38° SW
Resurs 1-4 Rocket 2.1 03:55:44 10° N 04:01:03 77° WNW 04:03:10 38° SSW
Cosmos 1420 Rocket 4.0 03:56:39 10° NNW 04:01:46 57° WSW 04:03:31 38° SSW
Cosmos 1300 3.2 03:59:06 10° NNW 04:02:34 42° W 04:02:34 42° W
ISS -3.7 04:01:51 10° NW 04:05:08 75° NE 04:08:23 10° ESE
CBERS-1 4.4 04:03:26 10° N 04:08:22 50° WNW 04:10:11 34° SW
NOSS 3-1 (C) 4.2 04:08:36 23° W 04:11:43 41° NW 04:17:50 10° NNE
Cosmos 921 Rocket 3.4 04:08:38 10° N 04:12:53 61° ENE 04:17:10 10° SSE
IRS-1D 3.6 04:08:43 10° N 04:14:04 73° WNW 04:16:37 31° SSW
Cosmos 1455 3.1 04:10:26 10° N 04:14:05 46° E 04:17:03 14° SSE
SL-14 R/B 4.4 04:15:32 27° W 04:15:49 27° WNW 04:19:09 10° NNW
PSLV R/B 3.8 04:14:38 35° S 04:16:17 71° WSW 04:20:28 10° NNW
Cosmos 2074 Rocket 4.0 04:10:43 10° N 04:16:57 83° E 04:22:50 12° S
Abrixas rocket 2.1 04:18:53 61° S 04:18:53 61° S 04:21:49 10° SE
MOZ.5/SAFIR/RUBIN 5/SL-8 3.8 04:16:19 28° S 04:18:49 67° WSW 04:23:35 10° NNW
Cosmos 2184 Rocket 4.1 04:12:31 10° N 04:18:57 83° E 04:25:19 10° S
Nadezhda 1 Rocket 4.3 04:15:09 15° S 04:20:13 65° E 04:26:27 10° NNE
Cosmos 2285 Rocket 4.3 04:17:12 28° SW 04:20:27 55° WNW 04:26:43 10° NNE
Okean 3 Rocket 3.8 04:19:35 36° SW 04:21:08 54° W 04:25:30 10° N
Cosmos 1328 4.2 04:22:13 38° WSW 04:23:16 48° W 04:27:09 10° N
ARIANE 5 R/B 2.4 04:19:07 10° N 04:24:14 77° WNW 04:27:01 27° SSW
Cosmos 1408 Rocket 3.6 04:21:54 26° S 04:24:17 75° E 04:28:37 10° N
SeaSat 1 2.7 04:22:27 26° S 04:24:52 46° WSW 04:29:37 10° NW
Meteor 1-27 4.4 04:20:46 10° N 04:26:27 76° E 04:32:11 10° SSE
ADEOS II 3.2 04:21:37 10° NNE 04:26:35 41° E 04:31:30 10° SSE
Cosmos 1110 Rocket 4.3 04:21:43 10° NNW 04:26:56 68° ENE 04:32:04 10° SSE
DELTA 2 R/B (1) 3.5 04:23:44 14° W 04:28:33 70° S 04:34:08 10° ESE
NOSS 3-1 (A) 4.1 04:27:14 21° WSW 04:30:47 43° NW 04:36:58 10° NNE
NOSS 2-3 (C) 3.8 04:31:00 28° SSW 04:33:25 84° SE 04:38:43 10° NE
H-2A R/B 3.8 04:31:04 10° N 04:34:54 28° WNW 04:36:35 22° WSW
CRYOSAT 2 4.3 04:32:42 18° S 04:36:18 75° W 04:41:14 10° N
Cosmos 1151 Rocket 4.1 04:33:43 10° N 04:37:56 46° ENE 04:42:07 10° SSE
USA 267 3.6 04:31:48 10° NE 04:38:13 60° NW 04:43:22 17° WSW
Aureole 1 Rocket 4.4 04:39:03 14° WNW 04:39:34 15° WNW 04:41:25 10° NNW
Cosmos 494 Rocket 3.9 04:38:14 21° SSW 04:41:43 90° N 04:46:58 10° NNE
Cosmos 1607 3.9 04:36:11 10° NNW 04:42:38 86° WSW 04:48:55 10° SSE
Cosmos 2327 Rocket 4.4 04:38:47 10° NNW 04:44:51 73° W 04:50:55 10° S
Cosmos 1743 Rocket 3.7 04:49:04 12° S 04:53:02 75° E 04:57:22 10° N
CZ-2D R/B 3.7 04:49:29 10° N 04:53:55 66° WNW 04:57:13 17° SSW
Cosmos 405 Rocket 4.1 04:52:07 10° N 04:55:47 40° ENE 04:59:22 10° SSE
Helios 1A Rocket 3.1 04:54:09 10° N 04:58:09 54° WNW 05:00:59 18° SW
BREEZE-M DEB (TANK) 4.0 04:55:30 11° W 04:58:46 41° NNW 05:02:51 10° NE
SL-16 R/B 3.7 04:57:22 17° SW 05:00:13 23° W 05:05:01 10° NW
Cosmos 1626 4.0 04:59:25 14° W 05:00:34 16° WNW 05:02:55 10° NNW
BREEZE-M DEB (TANK) 3.4 04:56:44 15° WSW 05:02:57 73° SSE 05:06:11 10° ENE
Cosmos 2058 3.1 05:00:42 16° SSW 05:03:51 55° W 05:08:01 10° N
Meteor 2-21 4.5 04:57:55 10° NNW 05:03:56 64° W 05:09:54 10° S
ADEOS 3.7 04:59:20 10° N 05:04:28 61° WNW 05:09:05 13° SSW
Cosmos 1331 Rocket 4.1 05:05:55 10° NNW 05:10:56 54° WSW 05:15:57 10° S
USA 234 3.4 05:04:46 10° SE 05:11:17 80° NE 05:17:51 10° NW
CZ-2D R/B 3.8 05:08:23 10° NNW 05:11:55 19° WNW 05:15:20 10° WSW
Cosmos 2251 Rocket 3.6 05:06:52 10° SSW 05:12:11 89° ESE 05:17:36 10° NNE
Cosmos 1302 Rocket 4.1 05:08:08 10° NNW 05:13:28 86° ENE 05:18:45 10° SSE
Timation 1 Rocket 4.4 05:08:04 11° SSW 05:13:46 88° WNW 05:19:45 10° NNE
UNKNOWN OBJECT B 3.8 05:17:31 10° N 05:20:44 28° WNW 05:23:34 12° SW
Cosmos 2151 3.5 05:16:57 12° SSW 05:20:45 44° WNW 05:24:54 10° N
Cosmos 1441 Rocket 3.2 05:18:48 10° NNW 05:22:46 73° W 05:26:42 10° S
Cosmos 2228 Rocket 3.3 05:19:07 10° NNW 05:23:36 55° W 05:28:03 10° S
Cosmos 1844 Rocket 2.9 05:18:47 12° SW 05:24:02 57° WNW 05:29:39 10° NNE
Cosmos 2278 Rocket 3.1 05:21:04 10° S 05:26:29 49° ESE 05:31:57 10° NE
Cosmos 1500 Rocket 3.8 05:25:37 10° SSW 05:29:58 53° W 05:34:20 10° N
Cosmos 1844 3.8 05:24:28 10° SSW 05:30:01 67° WNW 05:35:41 10° NNE
Cosmos 1328 Rocket 4.5 05:27:09 10° NNW 05:30:52 29° W 05:34:34 10° SSW
Cosmos 1869 3.3 05:28:45 10° NNW 05:32:37 59° W 05:36:29 10° S
Cosmos 2341 Rocket 4.0 05:27:04 10° NNW 05:33:17 69° W 05:39:29 10° S
Cosmos 220 Rocket 4.1 05:29:55 10° SSW 05:34:16 68° WNW 05:38:35 10° NNE
Meteor 2-10 Rocket 3.5 05:32:11 10° NNW 05:37:13 64° W 05:42:09 10° S
Cosmos 1892 4.4 05:34:37 10° SSE 05:38:11 36° E 05:41:45 10° NNE
Resurs 1-4 Rocket 4.3 05:38:59 10° NW 05:39:57 10° WNW 05:40:57 10° WNW
ISS -1.9 05:39:53 10° WSW 05:41:11 12° SW 05:42:28 10° SSW
GP-B 3.4 05:37:12 10° N 05:41:28 48° W 05:45:44 10° SSW
Cosmos 2263 Rocket 4.4 05:41:02 10° WNW 05:42:43 11° NW 05:44:25 10° NNW
OAO 2 Rocket 3.9 05:39:05 10° WSW 05:43:43 41° S 05:48:19 10° ESE
Meteor 1-31 Rocket 4.5 05:40:55 10° NNE 05:44:23 33° E 05:47:51 10° SSE
ATLAS 5 CENTAUR R/B 4.5 05:37:36 10° WSW 05:49:20 17° SW 05:54:41 10° S
